SCP
0 -0 0 0 0 0 -0 0 0 0 -0 0 0 0 0 -0 -0 -0 -0 0 -0 -0 -0 -0 -0 -0 0 0 0 0 0 0 -0 -0 0 0 0 -0 0 0 -0 -0 0 -0 -0 -0 -0 -0 -0
0 0 0 0 0 -0 -0 -0 0 0 -0 -0 -0 0 0 0 -0 -0 -0 0 -0 -0 -0 -0 0 -0 -0 -0 0 0 0 0 0 0 0 0 -0 0 0 0 0 -0 -0 -0 -0 -0 0 -0 -0
0 0 0 0 0 0 0 -0 -0 -0 -0 0 0 -0 0 -0 -0 -0 -0 -0 -0 -0 -0 -0 -0 0 -0 -0 -0 0 -0 0 0 0 0 -0 -0 -0 -0 -0 -0 -0 0 -0 0 -0 -0 0 0
0 0 0 0 0 0 0 0 -0 -0 0 0 0 0 -0 -0 -0 -0 -0 -0 -0 -0 -0 -0 -0 -0 -0 -0 -0 -0 -0 -0 0 0 -0 -0 -0 -0 -0 0 0 0 0 0 -0 0 0 0 0
0 0 0 0 0 0 0 0 -0 -0 -0 -0 0 -0 -0 -0 -0 -0 -0 -0 -0 -0 -0 -0 -0 -0 -0 0 -0 -0 -0 0 0 0 -0 0 0 0 0 0 0 0 0 0 0 0 0 0 0
0 0 0 0 0 0 0 0 0 0 0 -0 0 -0 -0 -0 -0 -0 -0 -0 -0 -0 -0 -0 -0 -0 -0 -0 -0 -0 -0 -0 -0 0 -0 -0 0 0 0 0 0 0 0 0 0 0 0 0 0
0 0 0 0 0 0 0 0 0 0 0 0 0 -0 -0 -0 -0 -0 -0 -0 -0 -0 -0 -0 -0 -0 0 0 -0 -0 -0 -0 -0 0 0 0 0 0 0 0 -0 -0 -0 0 0 0 0 0 0
0 0 0 0 0 0 0 0 0 0 0 0 0 0 -0 -0 -0 -0 -0 -0 -0 -0 -0 -0 -0 -0 0 0 -0 -0 0 0 0 0 -0 -0 0 0 -0 -0 -0 -0 0 0 0 0 0 0 0
0 0 0 0 0 0 0 0 0 0 0 0 0 0 0 -0 -0 0 0 0 0 0 0 0 -0 -0 -0 -0 0 -0 -0 -0 -0 -0 -0 -0 0 -0 -0 -0 0 0 0 0 0 0 0 0 0
0 0 0 0 0 0 0 0 0 0 0 0 0 0 -0 -0 -0 0 0 0 0 0 0 0 -0 -0 -0 -0 0 0 0 0 0 0 0 0 0 0 0 0 0 0 0 0 0 0 0 0 0
0 0 0 0 0 0 0 0 0 0 0 0 0 0 -0 -0 0 0 0 0 0 0 -0 -0 -0 -0 -0 -0 0 0 0 0 0 0 0 0 0 0 0 0 0 0 0 0 0 0 0 0 0
0 0 0 0 0 0 0 0 0 0 0 0 0 0 0 -0 0 0 -0 -0 -0 -0 0 0 0 0 0 0 0 0 0 0 0 0 0 0 0 0 0 0 0 0 0 0 0 0 0 0 0
0 0 0 0 0 0 0 0 0 0 0 0 0 0 0 0 0 -0 0 0 0 0 0 0 0 0 0 0 0 0 0 0 0 0 0 0 0 0 0 0 0 0 0 0 0 0 0 0 0
0 0 0 0 0 0 0 0 0 0 0 0 0 0 0 0 0 0 0 0 0 0 0 0 0 0 0 0 0 0 0 0 0 0 0 0 0 0 0 0 0 0 0 0 0 0 0 0 0
0 0 0 0 0 0 0 0 0 0 0 0 0 0 0 0 0 0 0 0 0 0 0 0 0 0 0 0 0 0 0 0 0 0 0 0 0 0 0 0 0 0 0 0 0 0 0 0 0
0 0 0 0 0 0 0 0 0 0 0 0 0 0 0 0 0 0 0 0 0 0 0 0 0 0 0 0 0 0 0 0 0 0 0 0 0 0 0 0 0 0 0 0 0 0 0 0 0
0 0 0 0 0 0 0 0 0 0 0 0 0 0 0 0 0 0 0 0 0 0 0 0 0 0 0 0 0 0 0 0 0 0 0 0 0 0 0 0 0 0 0 0 0 0 0 0 0
0 0 0 0 0 0 0 0 0 0 0 0 0 0 0 0 0 0 0 0 0 0 0 0 0 0 0 0 0 0 0 0 0 0 0 0 0 0 0 0 0 0 0 0 0 0 0 0 0
0 0 0 0 0 0 0 0 0 0 0 0 0 0 0 0 0 0 0 0 0 0 0 0 0 0 0 0 0 0 0 0 0 0 0 0 0 0 0 0 0 0 0 0 0 0 0 0 0
0 0 0 0 0 0 0 0 0 0 0 0 0 0 0 0 0 0 0 0 0 0 0 0 0 0 0 0 0 0 0 0 0 0 0 0 0 0 0 0 0 0 0 0 0 0 0 0 0
0 0 0 0 0 0 0 0 0 0 0 0 0 0 0 0 0 0 0 0 0 0 0 0 0 0 0 0 0 0 0 0 0 0 0 0 0 0 0 0 0 0 0 0 0 0 0 0 0
0 0 0 0 0 0 0 0 0 0 0 0 0 0 0 0 0 0 0 0 0 0 0 0 0 0 0 0 0 0 0 0 0 0 0 0 0 0 0 0 0 0 0 0 0 0 0 0 0
0 0 0 0 0 0 0 0 0 0 0 0 0 0 0 0 0 0 0 0 0 0 0 0 0 0 0 0 0 0 0 0 0 0 0 0 0 0 0 0 0 0 0 0 0 0 0 0 0
0 0 0 0 0 0 0 0 0 0 0 0 0 0 0 0 0 0 0 0 0 0 0 0 0 0 0 0 0 0 0 0 0 0 0 0 0 0 0 0 0 0 0 0 0 0 0 0 0
0 0 0 0 0 0 0 0 0 0 0 0 0 0 0 0 0 0 0 0 0 0 0 0 0 0 0 0 0 0 0 0 0 0 0 0 0 0 0 0 0 0 0 0 0 0 0 0 0
0 0 0 0 0 0 0 0 0 0 0 0 0 0 0 0 0 0 0 0 0 0 0 0 0 0 0 0 0 0 0 0 0 0 0 0 0 0 0 0 0 0 0 0 0 0 0 0 0
0 0 0 0 0 0 0 0 0 0 0 0 0 0 0 0 0 0 0 0 0 0 0 0 0 0 0 0 0 0 0 0 0 0 0 0 0 0 0 0 0 0 0 0 0 0 0 0 0
0 0 0 0 0 0 0 0 0 0 -0 0 0 0 0 0 0 0 0 0 0 0 0 0 0 0 0 0 0 0 0 0 0 0 0 0 0 0 0 0 0 0 0 0 0 0 0 0 0
0 0 0 0 0 0 0 0 0 0 0 0 0 0 0 0 0 0 0 0 -0 0 0 0 0 0 0 0 0 0 0 0 0 0 0 0 0 0 0 0 0 0 0 0 0 0 0 0 0
0 0 0 0 0 0 0 0 0 0 0 0 0 0 0 0 0 0 -0 -0 -0 0 0 0 0 0 0 0 0 0 0 0 0 0 0 0 0 0 0 0 0 0 0 0 0 0 0 0 0
Wind_Speed_500mb
2 12 18 10 12 12 6 11 6 12 12 7 11 3 5 20 15 8 32 24 34 34 26 22 21 23 23 21 22 17 14 12 11 13 12 11 9 9 8 9 9 7 4 7 8 14 13 15 17
8 18 13 13 14 16 13 15 14 16 15 14 13 5 6 12 14 26 28 29 35 33 27 22 22 23 24 22 16 15 12 8 10 7 7 8 10 12 11 10 9 10 12 4 4 8 10 13 13
18 16 18 9 18 12 8 17 20 16 17 14 9 3 4 10 16 31 22 37 35 30 26 20 19 22 24 24 21 13 8 4 4 1 3 7 9 8 8 8 8 10 7 9 1 5 6 9 9
10 10 13 15 17 7 5 19 28 26 12 9 3 10 9 5 28 18 32 37 33 31 26 23 18 19 21 24 23 18 10 8 5 6 1 4 3 3 5 7 5 5 6 8 6 4 4 4 6
13 14 15 20 7 5 2 22 30 23 19 17 13 10 10 20 19 28 34 35 32 28 25 22 17 15 16 19 23 20 19 14 10 7 3 3 2 3 3 5 4 3 3 5 8 7 4 7 9
20 16 15 20 16 10 12 23 25 16 14 15 10 20 15 19 22 31 34 34 31 31 25 19 16 14 14 14 17 21 20 17 10 6 5 4 4 3 2 1 2 2 3 6 8 10 12 14 14
20 17 24 24 21 16 16 25 22 15 15 12 14 17 13 25 25 30 32 33 31 25 22 19 15 14 15 15 15 15 15 11 9 7 8 8 5 2 4 5 4 4 5 6 7 10 12 12 14
12 11 24 16 22 14 27 27 15 15 16 15 9 8 16 34 32 31 29 29 29 28 25 23 20 19 16 15 14 14 13 11 10 9 9 9 4 6 6 7 7 9 10 11 11 11 12 14 15
7 13 21 24 26 20 34 28 18 5 17 11 10 2 17 38 39 34 30 27 27 26 26 24 22 19 17 14 14 12 12 12 12 12 12 11 11 10 11 11 14 14 16 17 17 17 18 19 19
13 20 30 15 16 25 39 32 28 18 21 14 13 10 30 39 41 37 33 30 29 28 26 23 23 21 19 17 17 17 15 14 13 13 14 14 13 17 18 21 17 20 21 23 23 23 23 24 23
6 16 6 7 7 20 42 28 28 21 19 18 24 29 36 38 36 36 33 30 28 25 23 24 23 22 20 17 16 16 18 17 17 16 15 15 16 19 19 21 22 22 24 26 28 27 29 27 20
12 3 2 6 3 23 35 30 23 23 16 13 18 34 38 37 35 33 31 29 28 26 24 23 23 22 20 18 19 17 18 18 18 17 18 19 20 21 21 23 23 26 26 29 27 29 31 31 33
9 6 6 6 9 18 27 29 26 24 11 15 21 32 36 34 31 29 28 26 26 27 26 25 23 22 20 20 20 20 21 22 21 21 21 22 23 25 25 26 27 29 30 30 32 33 34 36 37
8 4 9 8 14 14 20 15 10 28 16 18 24 29 32 32 33 30 31 30 30 28 26 25 26 24 24 24 25 26 28 28 28 28 28 26 27 29 29 31 33 34 36 35 35 36 37 40 36
5 7 10 13 12 9 16 14 22 16 20 16 21 26 29 30 29 31 28 29 27 28 28 29 28 29 30 30 30 31 32 34 35 35 34 33 33 35 37 39 40 41 43 45 45 45 47 45 45
2 4 17 14 9 6 11 27 25 11 20 26 20 23 25 29 30 27 27 26 26 25 28 32 36 36 36 36 36 37 38 39 40 41 41 39 38 40 44 48 51 50 48 44 45 44 48 49 50
6 15 16 12 6 4 12 17 14 8 9 19 21 20 21 22 25 27 28 27 27 28 30 35 39 42 41 43 44 45 46 46 44 45 46 44 44 45 47 49 51 48 48 46 45 45 45 49 50
20 16 14 14 6 4 10 14 15 9 5 14 16 15 16 18 22 23 24 25 28 34 38 40 39 45 47 50 53 54 54 55 52 51 50 49 48 48 48 50 52 49 48 53 51 47 50 50 53
25 9 13 7 10 4 10 20 20 10 8 13 16 16 19 26 26 26 24 24 34 39 44 46 50 53 55 57 60 61 60 58 58 57 56 55 53 51 51 54 56 56 56 58 59 52 47 52 54
21 16 16 4 7 6 13 21 23 18 21 26 28 27 31 35 35 32 30 29 32 41 41 47 54 53 50 51 52 50 45 49 45 53 56 55 53 52 55 58 60 61 63 61 57 48 46 51 49
23 26 24 14 3 5 11 32 36 24 22 30 34 37 40 36 36 35 32 37 43 50 48 53 57 54 49 46 44 49 52 55 55 52 50 49 50 49 53 57 58 60 59 56 52 41 43 52 50
28 24 16 11 5 10 4 13 22 18 13 15 23 28 24 20 22 26 24 28 30 38 44 45 45 49 50 51 49 47 46 42 34 46 48 46 47 49 52 53 53 52 53 49 40 41 44 49 47
3 9 12 15 9 16 21 12 25 21 17 22 34 10 8 6 12 16 19 21 21 23 30 36 39 40 43 42 40 40 38 40 43 44 46 45 46 49 50 49 50 51 48 44 40 42 47 51 60
22 19 13 4 7 11 27 23 19 20 20 10 5 9 3 1 3 8 11 13 14 19 25 26 27 30 33 33 34 33 34 36 37 37 40 42 45 47 48 44 42 42 40 37 38 42 46 49 55
23 25 6 6 8 11 4 23 29 9 11 7 16 3 4 4 7 18 28 29 28 26 24 21 17 18 20 22 24 23 23 26 30 35 38 41 43 45 43 41 39 37 37 38 41 45 49 51 56
29 21 8 12 11 11 9 14 6 14 17 12 9 9 4 4 14 25 32 34 32 29 28 27 24 19 15 13 14 16 20 25 29 34 38 42 44 44 43 42 43 42 41 42 45 49 51 56 55
23 21 5 2 3 4 13 15 10 13 18 14 11 8 11 16 19 18 24 32 29 26 25 24 23 19 17 18 18 18 22 27 33 36 39 42 44 44 45 46 48 49 50 50 50 54 56 58 61
9 19 7 4 5 12 14 17 15 17 25 21 14 15 16 17 17 10 17 31 29 26 23 19 17 17 17 17 19 23 27 31 33 37 40 43 45 47 49 52 53 56 58 59 59 60 60 63 64
10 16 8 7 6 7 9 9 5 16 15 19 23 18 17 15 11 5 14 30 30 25 21 21 20 23 26 29 31 34 36 41 44 46 46 50 51 52 55 57 59 63 66 66 67 66 65 65 65
25 19 22 5 8 7 6 13 5 7 8 20 23 9 7 9 8 10 17 26 28 19 22 26 27 30 32 35 37 38 40 42 45 48 51 55 59 61 64 65 66 68 69 71 72 72 70 70 68
Wind_Direction_500mb
256 162 159 196 239 237 140 153 103 150 155 89 146 187 26 17 6 46 141 141 151 148 159 145 148 154 153 152 160 154 141 131 144 159 174 184 186 191 184 181 194 178 68 31 31 40 51 51 51
164 161 187 247 257 223 140 128 169 164 86 131 138 141 177 85 66 126 141 144 149 149 154 153 148 157 154 156 160 156 154 137 139 149 180 198 211 218 219 217 221 222 193 115 17 27 44 50 57
160 187 236 224 244 287 126 162 143 116 142 164 142 321 76 89 116 135 150 145 150 155 154 158 152 154 162 162 167 158 154 153 151 318 219 222 217 219 215 224 228 215 183 127 203 11 16 44 51
168 209 244 245 213 63 67 156 139 143 153 177 222 146 106 74 141 149 146 148 150 152 161 156 150 153 161 166 170 169 178 192 254 314 284 155 175 187 205 229 189 187 161 172 144 171 352 345 10
207 240 227 232 138 111 169 140 153 163 154 161 185 131 110 135 145 139 145 149 156 156 172 158 142 141 152 164 169 180 188 219 267 281 205 155 161 148 191 224 228 228 199 200 222 232 246 312 320
220 245 223 212 178 146 150 155 159 165 150 132 191 137 129 161 146 149 150 153 160 162 166 154 141 129 130 146 170 184 201 229 239 258 180 190 182 156 141 222 251 265 263 242 250 265 283 287 290
256 216 229 217 155 165 158 166 171 165 164 153 141 147 128 161 159 155 154 159 163 164 162 154 148 144 142 144 157 176 195 208 215 220 212 235 220 236 250 260 275 288 283 265 263 265 271 283 286
243 263 231 228 170 171 158 169 181 175 126 132 165 178 167 169 164 159 160 165 169 173 171 174 177 175 172 167 170 178 191 205 212 218 226 236 237 247 268 274 276 281 282 279 276 276 277 279 283
212 230 215 206 198 143 160 169 171 129 138 166 165 69 124 161 158 161 166 172 177 186 179 185 191 191 186 196 195 198 205 211 213 222 234 242 258 270 270 262 272 272 277 282 283 285 286 286 289
232 219 225 198 209 154 173 179 162 168 158 165 152 120 147 154 161 168 175 180 184 189 191 192 195 199 196 202 210 207 214 221 225 229 237 246 249 241 251 266 279 280 281 282 283 284 283 283 285
171 228 66 105 121 185 172 181 170 188 182 177 172 154 158 164 171 177 181 187 189 194 195 194 199 204 206 215 213 220 219 221 226 232 237 245 248 260 269 272 282 280 281 282 284 280 278 277 270
176 75 13 129 233 176 171 165 177 190 137 138 157 163 166 176 182 187 189 193 196 195 203 207 204 208 212 215 227 223 229 230 233 240 245 252 260 267 272 277 281 285 283 287 281 274 276 271 271
112 94 97 112 140 184 178 176 174 190 136 145 151 163 174 181 190 194 197 196 199 201 205 211 216 220 228 236 242 245 247 251 251 253 260 266 271 276 278 281 283 284 285 283 283 280 276 276 275
29 65 110 115 138 146 181 170 170 192 154 152 167 177 184 190 194 198 200 202 206 210 213 219 228 232 237 244 249 252 254 257 259 262 270 275 274 276 278 280 282 284 285 285 282 281 277 278 270
22 183 149 146 138 128 190 187 209 153 182 165 184 190 193 200 202 209 216 215 217 223 225 229 236 241 243 249 254 257 260 260 258 260 264 269 274 276 277 278 279 283 284 282 278 277 278 273 272
91 264 173 137 161 97 204 199 201 147 192 202 196 196 198 205 215 216 222 229 228 230 235 240 245 248 252 254 257 260 264 264 264 259 262 268 273 279 282 282 283 282 278 276 277 276 273 273 273
273 175 208 135 57 97 213 221 98 161 197 204 210 213 213 217 222 225 230 235 237 240 243 247 251 255 256 258 258 258 261 264 266 260 263 267 273 280 281 281 280 278 277 272 265 264 262 264 280
183 191 222 209 85 164 181 242 107 96 228 223 218 216 232 241 238 243 245 248 247 253 256 254 251 260 262 262 262 260 261 264 264 263 263 266 271 277 282 285 283 278 272 274 273 262 261 267 272
195 202 255 228 38 280 220 260 257 189 281 249 244 244 252 260 261 257 258 253 258 263 265 266 267 266 263 262 262 263 263 263 261 261 262 264 268 273 281 284 283 280 276 276 275 271 258 261 264
163 200 237 239 329 303 241 259 266 256 250 254 260 260 260 264 267 269 270 270 264 267 269 269 271 269 268 266 261 256 257 261 257 263 264 263 265 271 281 287 286 285 283 280 274 265 262 259 259
220 224 209 221 168 242 300 266 259 244 249 252 253 255 259 265 274 274 273 271 266 273 276 272 273 271 269 267 260 259 261 264 266 268 269 265 267 277 287 290 290 290 289 284 280 269 260 263 258
220 213 259 197 228 244 275 269 249 225 204 215 243 246 254 261 270 281 282 278 276 270 273 275 272 268 260 257 259 260 260 259 258 261 266 272 276 284 288 289 289 288 285 276 272 265 257 259 261
216 122 210 223 243 288 230 262 250 254 242 255 249 240 228 223 279 285 288 288 291 286 294 284 275 270 266 262 258 259 264 266 269 272 275 278 283 289 290 289 290 287 280 275 270 270 267 263 266
127 121 112 140 220 251 247 242 254 227 213 246 122 135 195 190 323 324 324 328 318 310 314 309 291 280 274 271 269 271 274 277 277 277 279 283 287 288 289 290 292 289 281 277 273 269 267 268 268
176 170 136 200 202 244 345 226 243 299 248 204 179 243 150 32 56 77 74 60 45 30 12 355 340 313 293 279 283 285 285 284 284 284 285 286 287 287 288 288 290 294 287 278 276 274 275 276 274
190 183 181 208 202 222 111 229 244 238 257 149 203 247 240 167 116 95 71 51 38 27 22 18 12 358 340 317 300 296 293 291 290 288 287 285 285 284 284 288 289 290 291 286 282 279 279 280 280
184 218 53 351 14 313 206 225 257 232 247 205 206 184 156 153 146 105 66 39 29 20 12 9 11 4 345 330 319 310 300 300 299 296 291 290 289 286 285 286 288 291 291 288 284 281 280 277 275
208 166 175 216 218 244 254 263 259 204 228 187 178 171 161 163 159 111 50 21 17 4 349 344 339 330 325 318 311 306 303 299 295 295 297 298 297 293 290 291 293 293 291 291 290 289 286 284 282
168 178 221 181 218 254 270 264 100 278 215 213 161 155 164 178 174 193 346 351 357 346 329 321 313 304 304 301 302 300 300 302 302 301 302 303 302 300 297 295 294 292 292 292 290 288 287 285 284
218 210 199 206 179 250 321 255 4 16 210 180 143 99 172 194 221 268 311 334 336 323 315 315 312 304 304 306 304 307 308 305 302 299 299 298 296 295 292 290 290 290 290 290 289 288 287 286 283
Wind_Speed_850mb
2 12 18 10 12 12 6 11 6 12 12 7 11 3 5 20 15 8 32 24 34 34 26 22 21 23 23 21 22 17 14 12 11 13 12 11 9 9 8 9 9 7 4 7 8 14 13 15 17
8 18 13 13 14 16 13 15 14 16 15 14 13 5 6 12 14 26 28 29 35 33 27 22 22 23 24 22 16 15 12 8 10 7 7 8 10 12 11 10 9 10 12 4 4 8 10 13 13
18 16 18 9 18 12 8 17 20 16 17 14 9 3 4 10 16 31 22 37 35 30 26 20 19 22 24 24 21 13 8 4 4 1 3 7 9 8 8 8 8 10 7 9 1 5 6 9 9
10 10 13 15 17 7 5 19 28 26 12 9 3 10 9 5 28 18 32 37 33 31 26 23 18 19 21 24 23 18 10 8 5 6 1 4 3 3 5 7 5 5 6 8 6 4 4 4 6
13 14 15 20 7 5 2 22 30 23 19 17 13 10 10 20 19 28 34 35 32 28 25 22 17 15 16 19 23 20 19 14 10 7 3 3 2 3 3 5 4 3 3 5 8 7 4 7 9
20 16 15 20 16 10 12 23 25 16 14 15 10 20 15 19 22 31 34 34 31 31 25 19 16 14 14 14 17 21 20 17 10 6 5 4 4 3 2 1 2 2 3 6 8 10 12 14 14
20 17 24 24 21 16 16 25 22 15 15 12 14 17 13 25 25 30 32 33 31 25 22 19 15 14 15 15 15 15 15 11 9 7 8 8 5 2 4 5 4 4 5 6 7 10 12 12 14
12 11 24 16 22 14 27 27 15 15 16 15 9 8 16 34 32 31 29 29 29 28 25 23 20 19 16 15 14 14 13 11 10 9 9 9 4 6 6 7 7 9 10 11 11 11 12 14 15
7 13 21 24 26 20 34 28 18 5 17 11 10 2 17 38 39 34 30 27 27 26 26 24 22 19 17 14 14 12 12 12 12 12 12 11 11 10 11 11 14 14 16 17 17 17 18 19 19
13 20 30 15 16 25 39 32 28 18 21 14 13 10 30 39 41 37 33 30 29 28 26 23 23 21 19 17 17 17 15 14 13 13 14 14 13 17 18 21 17 20 21 23 23 23 23 24 23
6 16 6 7 7 20 42 28 28 21 19 18 24 29 36 38 36 36 33 30 28 25 23 24 23 22 20 17 16 16 18 17 17 16 15 15 16 19 19 21 22 22 24 26 28 27 29 27 20
12 3 2 6 3 23 35 30 23 23 16 13 18 34 38 37 35 33 31 29 28 26 24 23 23 22 20 18 19 17 18 18 18 17 18 19 20 21 21 23 23 26 26 29 27 29 31 31 33
9 6 6 6 9 18 27 29 26 24 11 15 21 32 36 34 31 29 28 26 26 27 26 25 23 22 20 20 20 20 21 22 21 21 21 22 23 25 25 26 27 29 30 30 32 33 34 36 37
8 4 9 8 14 14 20 15 10 28 16 18 24 29 32 32 33 30 31 30 30 28 26 25 26 24 24 24 25 26 28 28 28 28 28 26 27 29 29 31 33 34 36 35 35 36 37 40 36
5 7 10 13 12 9 16 14 22 16 20 16 21 26 29 30 29 31 28 29 27 28 28 29 28 29 30 30 30 31 32 34 35 35 34 33 33 35 37 39 40 41 43 45 45 45 47 45 45
2 4 17 14 9 6 11 27 25 11 20 26 20 23 25 29 30 27 27 26 26 25 28 32 36 36 36 36 36 37 38 39 40 41 41 39 38 40 44 48 51 50 48 44 45 44 48 49 50
6 15 16 12 6 4 12 17 14 8 9 19 21 20 21 22 25 27 28 27 27 28 30 35 39 42 41 43 44 45 46 46 44 45 46 44 44 45 47 49 51 48 48 46 45 45 45 49 50
20 16 14 14 6 4 10 14 15 9 5 14 16 15 16 18 22 23 24 25 28 34 38 40 39 45 47 50 53 54 54 55 52 51 50 49 48 48 48 50 52 49 48 53 51 47 50 50 53
25 9 13 7 10 4 10 20 20 10 8 13 16 16 19 26 26 26 24 24 34 39 44 46 50 53 55 57 60 61 60 58 58 57 56 55 53 51 51 54 56 56 56 58 59 52 47 52 54
21 16 16 4 7 6 13 21 23 18 21 26 28 27 31 35 35 32 30 29 32 41 41 47 54 53 50 51 52 50 45 49 45 53 56 55 53 52 55 58 60 61 63 61 57 48 46 51 49
23 26 24 14 3 5 11 32 36 24 22 30 34 37 40 36 36 35 32 37 43 50 48 53 57 54 49 46 44 49 52 55 55 52 50 49 50 49 53 57 58 60 59 56 52 41 43 52 50
28 24 16 11 5 10 4 13 22 18 13 15 23 28 24 20 22 26 24 28 30 38 44 45 45 49 50 51 49 47 46 42 34 46 48 46 47 49 52 53 53 52 53 49 40 41 44 49 47
3 9 12 15 9 16 21 12 25 21 17 22 34 10 8 6 12 16 19 21 21 23 30 36 39 40 43 42 40 40 38 40 43 44 46 45 46 49 50 49 50 51 48 44 40 42 47 51 60
22 19 13 4 7 11 27 23 19 20 20 10 5 9 3 1 3 8 11 13 14 19 25 26 27 30 33 33 34 33 34 36 37 37 40 42 45 47 48 44 42 42 40 37 38 42 46 49 55
23 25 6 6 8 11 4 23 29 9 11 7 16 3 4 4 7 18 28 29 28 26 24 21 17 18 20 22 24 23 23 26 30 35 38 41 43 45 43 41 39 37 37 38 41 45 49 51 56
29 21 8 12 11 11 9 14 6 14 17 12 9 9 4 4 14 25 32 34 32 29 28 27 24 19 15 13 14 16 20 25 29 34 38 42 44 44 43 42 43 42 41 42 45 49 51 56 55
23 21 5 2 3 4 13 15 10 13 18 14 11 8 11 16 19 18 24 32 29 26 25 24 23 19 17 18 18 18 22 27 33 36 39 42 44 44 45 46 48 49 50 50 50 54 56 58 61
9 19 7 4 5 12 14 17 15 17 25 21 14 15 16 17 17 10 17 31 29 26 23 19 17 17 17 17 19 23 27 31 33 37 40 43 45 47 49 52 53 56 58 59 59 60 60 63 64
10 16 8 7 6 7 9 9 5 16 15 19 23 18 17 15 11 5 14 30 30 25 21 21 20 23 26 29 31 34 36 41 44 46 46 50 51 52 55 57 59 63 66 66 67 66 65 65 65
25 19 22 5 8 7 6 13 5 7 8 20 23 9 7 9 8 10 17 26 28 19 22 26 27 30 32 35 37 38 40 42 45 48 51 55 59 61 64 65 66 68 69 71 72 72 70 70 68
Wind_Direction_850mb
256 162 159 196 239 237 140 153 103 150 155 89 146 187 26 17 6 46 141 141 151 148 159 145 148 154 153 152 160 154 141 131 144 159 174 184 186 191 184 181 194 178 68 31 31 40 51 51 51
164 161 187 247 257 223 140 128 169 164 86 131 138 141 177 85 66 126 141 144 149 149 154 153 148 157 154 156 160 156 154 137 139 149 180 198 211 218 219 217 221 222 193 115 17 27 44 50 57
160 187 236 224 244 287 126 162 143 116 142 164 142 321 76 89 116 135 150 145 150 155 154 158 152 154 162 162 167 158 154 153 151 318 219 222 217 219 215 224 228 215 183 127 203 11 16 44 51
168 209 244 245 213 63 67 156 139 143 153 177 222 146 106 74 141 149 146 148 150 152 161 156 150 153 161 166 170 169 178 192 254 314 284 155 175 187 205 229 189 187 161 172 144 171 352 345 10
207 240 227 232 138 111 169 140 153 163 154 161 185 131 110 135 145 139 145 149 156 156 172 158 142 141 152 164 169 180 188 219 267 281 205 155 161 148 191 224 228 228 199 200 222 232 246 312 320
220 245 223 212 178 146 150 155 159 165 150 132 191 137 129 161 146 149 150 153 160 162 166 154 141 129 130 146 170 184 201 229 239 258 180 190 182 156 141 222 251 265 263 242 250 265 283 287 290
256 216 229 217 155 165 158 166 171 165 164 153 141 147 128 161 159 155 154 159 163 164 162 154 148 144 142 144 157 176 195 208 215 220 212 235 220 236 250 260 275 288 283 265 263 265 271 283 286
243 263 231 228 170 171 158 169 181 175 126 132 165 178 167 169 164 159 160 165 169 173 171 174 177 175 172 167 170 178 191 205 212 218 226 236 237 247 268 274 276 281 282 279 276 276 277 279 283
212 230 215 206 198 143 160 169 171 129 138 166 165 69 124 161 158 161 166 172 177 186 179 185 191 191 186 196 195 198 205 211 213 222 234 242 258 270 270 262 272 272 277 282 283 285 286 286 289
232 219 225 198 209 154 173 179 162 168 158 165 152 120 147 154 161 168 175 180 184 189 191 192 195 199 196 202 210 207 214 221 225 229 237 246 249 241 251 266 279 280 281 282 283 284 283 283 285
171 228 66 105 121 185 172 181 170 188 182 177 172 154 158 164 171 177 181 187 189 194 195 194 199 204 206 215 213 220 219 221 226 232 237 245 248 260 269 272 282 280 281 282 284 280 278 277 270
176 75 13 129 233 176 171 165 177 190 137 138 157 163 166 176 182 187 189 193 196 195 203 207 204 208 212 215 227 223 229 230 233 240 245 252 260 267 272 277 281 285 283 287 281 274 276 271 271
112 94 97 112 140 184 178 176 174 190 136 145 151 163 174 181 190 194 197 196 199 201 205 211 216 220 228 236 242 245 247 251 251 253 260 266 271 276 278 281 283 284 285 283 283 280 276 276 275
29 65 110 115 138 146 181 170 170 192 154 152 167 177 184 190 194 198 200 202 206 210 213 219 228 232 237 244 249 252 254 257 259 262 270 275 274 276 278 280 282 284 285 285 282 281 277 278 270
22 183 149 146 138 128 190 187 209 153 182 165 184 190 193 200 202 209 216 215 217 223 225 229 236 241 243 249 254 257 260 260 258 260 264 269 274 276 277 278 279 283 284 282 278 277 278 273 272
91 264 173 137 161 97 204 199 201 147 192 202 196 196 198 205 215 216 222 229 228 230 235 240 245 248 252 254 257 260 264 264 264 259 262 268 273 279 282 282 283 282 278 276 277 276 273 273 273
273 175 208 135 57 97 213 221 98 161 197 204 210 213 213 217 222 225 230 235 237 240 243 247 251 255 256 258 258 258 261 264 266 260 263 267 273 280 281 281 280 278 277 272 265 264 262 264 280
183 191 222 209 85 164 181 242 107 96 228 223 218 216 232 241 238 243 245 248 247 253 256 254 251 260 262 262 262 260 261 264 264 263 263 266 271 277 282 285 283 278 272 274 273 262 261 267 272
195 202 255 228 38 280 220 260 257 189 281 249 244 244 252 260 261 257 258 253 258 263 265 266 267 266 263 262 262 263 263 263 261 261 262 264 268 273 281 284 283 280 276 276 275 271 258 261 264
163 200 237 239 329 303 241 259 266 256 250 254 260 260 260 264 267 269 270 270 264 267 269 269 271 269 268 266 261 256 257 261 257 263 264 263 265 271 281 287 286 285 283 280 274 265 262 259 259
220 224 209 221 168 242 300 266 259 244 249 252 253 255 259 265 274 274 273 271 266 273 276 272 273 271 269 267 260 259 261 264 266 268 269 265 267 277 287 290 290 290 289 284 280 269 260 263 258
220 213 259 197 228 244 275 269 249 225 204 215 243 246 254 261 270 281 282 278 276 270 273 275 272 268 260 257 259 260 260 259 258 261 266 272 276 284 288 289 289 288 285 276 272 265 257 259 261
216 122 210 223 243 288 230 262 250 254 242 255 249 240 228 223 279 285 288 288 291 286 294 284 275 270 266 262 258 259 264 266 269 272 275 278 283 289 290 289 290 287 280 275 270 270 267 263 266
127 121 112 140 220 251 247 242 254 227 213 246 122 135 195 190 323 324 324 328 318 310 314 309 291 280 274 271 269 271 274 277 277 277 279 283 287 288 289 290 292 289 281 277 273 269 267 268 268
176 170 136 200 202 244 345 226 243 299 248 204 179 243 150 32 56 77 74 60 45 30 12 355 340 313 293 279 283 285 285 284 284 284 285 286 287 287 288 288 290 294 287 278 276 274 275 276 274
190 183 181 208 202 222 111 229 244 238 257 149 203 247 240 167 116 95 71 51 38 27 22 18 12 358 340 317 300 296 293 291 290 288 287 285 285 284 284 288 289 290 291 286 282 279 279 280 280
184 218 53 351 14 313 206 225 257 232 247 205 206 184 156 153 146 105 66 39 29 20 12 9 11 4 345 330 319 310 300 300 299 296 291 290 289 286 285 286 288 291 291 288 284 281 280 277 275
208 166 175 216 218 244 254 263 259 204 228 187 178 171 161 163 159 111 50 21 17 4 349 344 339 330 325 318 311 306 303 299 295 295 297 298 297 293 290 291 293 293 291 291 290 289 286 284 282
168 178 221 181 218 254 270 264 100 278 215 213 161 155 164 178 174 193 346 351 357 346 329 321 313 304 304 301 302 300 300 302 302 301 302 303 302 300 297 295 294 292 292 292 290 288 287 285 284
218 210 199 206 179 250 321 255 4 16 210 180 143 99 172 194 221 268 311 334 336 323 315 315 312 304 304 306 304 307 308 305 302 299 299 298 296 295 292 290 290 290 290 290 289 288 287 286 283